JUPITER 3 (ECHOSTAR 24)

Last updated on Mon Jun 30 2025 00:02:48 GMT+0000 (Coordinated Universal Time)

1 57479U 23108A 25179.49563892 -.00000156 00000+0 00000+0 0 9997 2 57479 0.0236 23.7427 0001963 80.0506 256.2285 1.00279224 7103
UTC large
Height (km)
Speed (km/s)
/
Latitude / Longitude
Inclination (degrees)
Orbital Period (minutes)
Azimuth
Elevation
Range (km)
Doppler Factor

Next 0 passes for location: London (51.5072 / 0.1276)

Sorry there are no passes over London.